Regional Weather Roundup
Issued by NWS

Home | Current Version | Previous Version | Graphics & Text | Print | Product List | Glossary Off
Versions: 1 2 3 4 5 6 7 8 9 10 11 12 13 14 15 16 17 18 19 20 21 22 23 24 25 26 27 28 29 30 31 32 33 34 35 36 37 38 39 40 41 42 43 44 45 46 47 48 49 50

000
ASUS45 KBOU 010907
RWRCO

WEATHER ROUNDUP FOR COLORADO
NATIONAL WEATHER SERVICE DENVER/BOULDER CO
300 AM MDT MON SEP 01 2014

NOTE: "FAIR" INDICATES FEW OR NO CLOUDS BELOW 12000 FEET WITH NO
SIGNIFICANT WEATHER AND/OR OBSTRUCTIONS TO VISIBILITY.

COZ001>005-013-030-031-011000-
...NORTHWEST COLORADO...

CITY           SKY/WX    TMP DP  RH WIND       PRES   REMARKS
CRAIG          CLEAR     42  39  89 CALM      30.14R
HAYDEN         CLEAR     45  36  70 SE5       30.15R
MEEKER         CLEAR     46  41  82 CALM      30.15R
MOUNT WERNER   NOT AVBL
STEAMBOAT SPGS CLEAR     42  40  93 CALM      30.16S
WALDEN         PTCLDY    36  34  93 SE7       30.19S
$$

COZ006>008-011-011000-
...WEST CENTRAL VALLEYS...

CITY           SKY/WX    TMP DP  RH WIND       PRES   REMARKS
GRAND JUNCTION CLEAR     54  40  59 CALM      30.02S
MONTROSE       CLEAR     54  40  59 S9        30.11S
EAGLE          CLEAR     46  43  87 E3        30.17R
RIFLE          CLEAR     51  41  68 SE5       30.08S
DELTA          CLEAR     62  38  40 CALM      30.06R HAZE
NUCLA          CLEAR     55  34  44 SE9       30.13R
$$

COZ017>023-064>068-011000-
...SOUTHWEST COLORADO...

CITY           SKY/WX    TMP DP  RH WIND       PRES   REMARKS
DURANGO        CLEAR     53  37  54 N3        30.12S
CORTEZ         CLEAR     50  40  68 NE7       30.09S
PAGOSA SPRINGS NOT AVBL
TELLURIDE      CLEAR     50  34  53 SE6       30.31R
WOLF CREEK PAS CLEAR     43  28  56 SW23G33   30.45S
$$

COZ009-010-012-014-032>034-037-058>063-011000-
...CENTRAL COLORADO...

CITY           SKY/WX    TMP DP  RH WIND       PRES   REMARKS
ASPEN          PTCLDY    45  37  73 S9        30.20S
BUENA VISTA    CLEAR     46  33  60 CALM      30.18R
COPPER MTN     CLEAR     45  30  57 S12G21    30.41F
BERTHOUD PASS  FAIR      34  34 100 W26G33    30.40F WCI  21
COTTONWOOD PAS CLEAR     55  27  33 CALM      30.29R
GUNNISON       CLEAR     41  34  75 CALM      30.22R
KREMMLING      CLEAR     37  36  93 CALM      30.20R
LEADVILLE      MOCLDY    46  31  55 N6        30.29S
MONARCH PASS   CLEAR     41  28  60 W33       30.51R
SALIDA         CLEAR     54  37  52 CALM      30.22R
SUNLIGHT       CLEAR     41  34  75 CALM      30.36S
WILKERSON PASS NOT AVBL
$$

COZ069>075-011000-
...SAN LUIS VALLEY/SANGRE DE CRISTO MOUNTAINS...

CITY           SKY/WX    TMP DP  RH WIND       PRES   REMARKS
ALAMOSA        CLEAR     50  35  56 SW9       30.15S
LA VETA PASS   NOT AVBL
SAGUACHE       NOT AVBL
$$

COZ035-036-038>040-011000-
...NORTHERN COLORADO FRONT RANGE...

CITY           SKY/WX    TMP DP  RH WIND       PRES   REMARKS
DENVER INTL AP PTCLDY    51  45  79 S9        30.08R
DMNS CITY PARK   N/A     52  46  80 E1        30.07S
AURORA         PTCLDY    53  43  69 S3        30.09R
FRONT RANGE AP NOT AVBL
ERIE MUNI ARPT PTCLDY    51  50  96 CALM      30.07R
BOULDER MUN AP CLEAR     54  48  82 CALM      30.07R
CENTENNIAL     PTCLDY    54  42  64 CALM      30.09R
BROOMFIELD     CLEAR     54  46  76 CALM      30.09S
FORT COLLINS   PTCLDY    54  48  82 S5        30.07R
LONGMONT       PTCLDY    51  47  87 CALM      30.08S
$$

COZ041-046-047-076>085-087-088-011000-
...PIKES PEAK/PALMER DIVIDE AND SOUTHERN FOOTHILLS...

CITY           SKY/WX    TMP DP  RH WIND       PRES   REMARKS
COLO. SPRINGS  MOCLDY    58  48  69 NE5       30.11R
A. F. ACADEMY  MOCLDY    51  47  87 N6        30.13R
ELLICOTT       PTCLDY    53  49  86 NE5       30.09R
FALCON         CLOUDY    55  48  78 CALM      30.15R
FORT CARSON    PTCLDY    58  48  70 S5        30.08R
LIMON          CLOUDY    53  48  83 CALM      30.07R
MONUMENT HILL  MOCLDY    46  45  93 E5        30.13S
TRINIDAD       CLEAR     54  47  77 W6        30.05S
$$

COZ042>045-048>051-090-091-011000-
...NORTHEAST COLORADO...

CITY           SKY/WX    TMP DP  RH WIND       PRES   REMARKS
GREELEY ARPT   MOCLDY    55  45  67 SW6       30.05S
AKRON          PTCLDY    51  45  79 NW9       30.02R
BURLINGTON     CLEAR     54  49  83 N6        30.00R
WRAY             N/A     54  48  81 SW3       29.98R
STERLING       PTCLDY    54  52  94 W3        29.99R
HOLYOKE        PTCLDY    54  48  82 W5        29.97R
FORT MORGAN    CLEAR     49  46  87 CALM      30.03S
$$

COZ086-089-092>099-011000-
...SOUTHEAST COLORADO...

CITY           SKY/WX    TMP DP  RH WIND       PRES   REMARKS
PUEBLO         CLEAR     58  47  66 CALM      30.02R
LA JUNTA       CLEAR     55  50  83 NW9       29.99R
LAMAR          CLEAR     57  52  83 N3        29.95R
SPRINGFIELD      N/A     56  52  86 NW8       29.96S
$$



USA.gov is the U.S. government's official web portal to all federal, state and local government web resources and services.